Regional Weather Roundup
Issued by NWS

Home | Current Version | Previous Version | Graphics & Text | Print | Product List | Glossary On
Versions: 1 2 3 4 5 6 7 8 9 10 11 12 13 14 15 16 17 18 19 20 21 22 23 24 25 26 27 28 29 30 31 32 33 34 35 36 37 38 39 40 41 42 43 44 45 46 47 48 49 50
000
ASUS43 KOAX 210910
RWRNE

WEATHER ROUNDUP FOR NEBRASKA
NATIONAL WEATHER SERVICE OMAHA NE
400 AM CDT THU AUG 21 2014

NOTES: SATELLITE DATA IS BEING USED TO AUGMENT CLOUD COVER ABOVE
       12000 FEET.
       "FAIR" INDICATES FEW OR NO CLOUDS BELOW 12,000 FEET WITH NO
       SIGNIFICANT WEATHER AND/OR OBSTRUCTIONS TO VISIBILITY.

  * THESE STATIONS DO NOT REPORT WEATHER SUCH AS RAIN...SNOW OR FOG.

NEZ001>004-019>022-054>056-211000-
NEBRASKA PANHANDLE

CITY           SKY/WX    TMP DP  RH WIND       PRES   REMARKS
SCOTTSBLUFF    PTCLDY    65  52  62 N6        29.93R
ALLIANCE       PTCLDY    67  51  56 W10       29.89R
CHADRON        PTCLDY    59  51  75 SE5       29.88R
KIMBALL        CLOUDY    63  55  76 SW5       29.99R
SIDNEY         CLOUDY    67  57  70 W9        29.96R
$$

NEZ057>060-069>072-079>082-211000-
SOUTHWEST NEBRASKA

CITY           SKY/WX    TMP DP  RH WIND       PRES   REMARKS
NORTH PLATTE   PTCLDY    63  60  90 NW3       29.83R
IMPERIAL       PTCLDY    69  60  73 NW5       29.88R
LEXINGTON      CLOUDY    71  65  80 SE12      29.78F
MCCOOK         PTCLDY    70  64  81 E8        29.79F
OGALLALA       CLOUDY    66  60  81 W3        29.91R
$$

NEZ005>010-023>029-035>040-094-211000-
NORTH CENTRAL NEBRASKA

CITY           SKY/WX    TMP DP  RH WIND       PRES   REMARKS
VALENTINE      PTCLDY    64  59  83 NW6       29.79S
AINSWORTH      CLEAR     69  62  79 SW7       29.78F
BROKEN BOW     MOCLDY    69  63  81 CALM      29.78S
O`NEILL        MOCLDY    74  67  78 SW9       29.75R
ORD            LGT RAIN  73  63  70 N6        29.75F
$$

NEZ041-046>049-061>064-073>077-083>087-211000-
SOUTH CENTRAL NEBRASKA

CITY           SKY/WX    TMP DP  RH WIND       PRES   REMARKS
GRAND ISLAND   LGT RAIN  74  63  68 NW18G30   29.85R
AURORA         CLOUDY    74  67  77 S14       29.78S
HASTINGS       TSTM      72  64  76 S23G36    29.79F
HEBRON         MOCLDY    76  64  64 W7        29.81R
HOLDREGE       CLOUDY    71  67  87 CALM      29.79F
KEARNEY *      CLOUDY    68  63  83 N6        29.81S
YORK           LGT RAIN  73 N/A N/A SW8       29.79F
$$

NEZ011>018-030>034-042>045-211000-
NORTHEAST NEBRASKA

CITY           SKY/WX    TMP DP  RH WIND       PRES   REMARKS
NORFOLK        CLOUDY    79  68  69 SW9       29.73R
ALBION         CLOUDY    72  65  77 SW18G25   29.79R
BLAIR          MOCLDY    79  68  69 S10       29.78S
COLUMBUS *     CLOUDY    57 N/A N/A SW7       29.77S
FREMONT        CLOUDY    80  67  63 S7        29.77S
TEKAMAH        MOCLDY    79  69  71 S12       29.75S
WAYNE          MOCLDY    75  71  88 S9        29.73R
$$

NEZ050>053-065>068-078-088>093-211000-
SOUTHEAST NEBRASKA

CITY           SKY/WX    TMP DP  RH WIND       PRES   REMARKS
LINCOLN        CLOUDY    81  65  58 SW10      29.79R
OMAHA EPPLEY   MOCLDY    79  68  69 S12       29.77S
BEATRICE       CLOUDY    80  67  65 S14G22    29.80S
FALLS CITY     PTCLDY    79  69  71 S10G20    29.81F
NEBRASKA CITY  CLOUDY    78  67  67 S10       29.80F
PLATTSMOUTH    MOCLDY    79  66  64 S10G18    29.78F
$$

NEZ044-045-051>053-067-211000-
OMAHA AREA

CITY           SKY/WX    TMP DP  RH WIND       PRES   REMARKS
OMAHA EPPLEY   MOCLDY    79  68  69 S12       29.77S
BLAIR          MOCLDY    79  68  69 S10       29.78S
FREMONT        CLOUDY    80  67  63 S7        29.77S
MILLARD        MOCLDY    80  69  68 S5        29.77S
OFFUTT AFB     MOCLDY    78  71  78 S9        29.78S
PLATTSMOUTH    MOCLDY    79  66  64 S10G18    29.78F
WAHOO          FAIR      80  65  59 S10G16    29.78R
$$


USA.gov is the U.S. government's official web portal to all federal, state and local government web resources and services.